Theta_e
334 335 337 338 339 339 338 338 338 336 336 337 339 339 339 342 341 343 345 347 347 348 342 343 347 345 342 338 335 341 338 338 335 329 328 331 332 338 340 339 336 340 340
330 333 335 337 337 338 338 336 338 335 337 338 337 339 341 345 348 345 348 347 348 349 344 345 346 346 345 342 342 341 328 331 334 329 327 321 324 330 335 335 341 343 347
328 331 333 335 336 337 337 337 337 335 338 337 338 339 343 338 338 341 345 348 349 347 346 348 347 346 341 338 337 339 335 331 338 334 333 322 316 324 329 332 338 343 343
330 331 331 333 334 336 339 338 336 336 338 337 336 336 337 335 336 336 341 345 348 349 349 350 348 345 341 330 339 347 341 335 334 337 342 337 329 320 323 333 339 341 342
329 330 331 333 335 337 337 338 334 335 337 336 336 335 337 338 335 337 336 338 341 346 348 349 348 347 343 342 337 336 341 341 337 334 336 334 332 328 327 325 332 339 341
329 330 332 333 333 335 337 337 334 334 335 335 337 336 339 340 337 335 339 341 341 346 349 349 346 344 340 340 344 338 343 341 341 343 343 336 328 325 326 327 329 335 337
327 329 330 330 330 332 335 336 334 333 333 333 334 337 340 342 340 340 339 340 342 344 344 347 347 342 340 337 334 341 344 345 344 342 342 339 338 334 329 330 331 331 334
328 329 330 331 331 331 333 337 335 334 333 335 335 335 338 342 343 342 342 341 341 343 344 346 348 347 344 337 339 344 346 343 345 344 342 341 339 338 337 332 332 327 329
329 328 331 331 330 329 329 334 336 336 336 336 336 338 339 341 343 342 342 342 342 342 342 344 348 348 347 344 341 345 343 344 343 343 343 342 337 337 339 339 338 330 325
329 329 327 329 330 330 331 334 335 334 338 340 338 339 341 342 343 343 342 343 343 341 341 342 345 345 347 347 346 346 344 344 343 344 340 341 341 341 341 342 341 337 331
326 330 331 329 330 330 331 333 334 333 335 336 339 338 341 342 343 344 343 343 343 342 340 341 339 342 342 345 345 345 345 343 342 344 342 342 343 341 342 343 340 338 334
327 330 331 331 329 330 330 332 334 335 335 336 337 337 338 342 343 344 344 345 342 341 340 339 337 335 343 345 345 343 346 342 341 341 340 342 346 341 341 340 341 339 336
327 328 329 329 329 330 330 332 333 335 336 337 338 339 338 339 343 344 345 345 343 340 341 339 335 336 344 345 345 346 345 345 342 340 334 339 342 340 340 339 338 340 341
325 326 327 328 329 331 332 333 334 335 337 339 339 340 340 341 342 344 345 346 344 343 341 341 343 342 343 344 345 346 344 344 342 338 341 344 343 340 340 340 339 340 338
325 326 327 328 329 330 332 334 334 335 336 339 341 340 342 343 345 346 346 347 344 345 344 342 342 344 345 346 345 345 345 344 342 345 344 343 343 341 340 342 340 339 336
325 327 329 331 332 331 331 335 336 337 337 339 340 343 343 345 344 348 345 341 341 342 341 343 343 343 348 341 338 344 344 344 341 342 341 338 337 334 334 334 334 337 335
323 323 330 333 335 336 338 339 338 339 336 336 337 340 342 342 343 343 341 341 339 338 339 341 342 342 344 332 334 339 343 343 341 342 338 337 336 331 327 328 327 327 328
327 330 333 333 334 335 336 338 337 337 337 337 337 337 338 338 339 341 341 337 340 339 336 338 341 343 340 329 329 335 342 342 343 342 341 342 331 328 326 322 320 319 320
329 330 332 332 333 334 334 333 332 333 333 333 332 334 335 337 336 339 340 339 332 334 335 338 339 338 333 325 326 331 339 338 336 336 340 340 337 328 324 321 318 317 319
330 330 330 330 330 329 329 327 325 328 328 331 329 334 334 334 334 338 340 340 337 335 339 337 337 332 333 323 322 325 337 332 330 330 330 330 334 322 321 322 319 318 318
328 328 327 326 325 324 324 323 325 324 323 323 329 329 336 337 336 334 336 341 339 338 337 335 335 333 331 327 322 321 337 333 330 330 326 323 319 316 317 320 323 320 318
326 326 323 322 322 322 323 324 318 321 323 324 326 329 330 331 330 333 332 336 340 339 336 333 328 327 327 322 317 319 324 328 329 327 326 318 313 312 313 319 316 317 320
324 323 321 320 320 319 322 322 320 321 322 320 319 319 323 324 326 327 327 326 327 326 323 324 323 322 323 325 317 316 320 321 322 322 315 310 308 309 313 315 316 318 317
322 322 322 321 323 320 320 323 319 319 321 318 317 317 315 314 314 321 323 324 323 322 321 320 318 318 318 318 319 320 319 318 318 317 319 316 315 315 315 317 317 317 315
323 322 320 323 323 322 319 320 319 318 317 316 316 317 317 314 310 306 305 316 313 319 321 321 320 319 317 316 313 316 320 320 317 317 318 317 316 315 315 315 314 313 312
322 325 325 325 323 324 321 320 320 318 316 314 314 317 317 317 318 317 315 304 302 301 302 304 313 311 306 302 302 301 304 305 310 317 316 315 315 314 313 311 309 309 310
Wind_Speed
10 7 9 9 8 7 9 8 8 7 4 2 2 1 2 3 3 4 6 4 4 3 2 1 3 4 3 3 3 2 2 1 2 2 1 2 4 3 2 3 3 4 5
8 8 9 10 10 10 10 8 9 7 5 3 2 2 1 3 3 2 3 4 4 3 3 2 1 3 4 4 4 4 2 1 3 3 2 1 4 3 3 3 4 6 3
12 10 10 11 10 10 10 10 10 8 6 6 2 2 1 1 2 2 1 3 4 4 3 3 3 3 3 3 3 4 5 4 1 2 3 2 3 1 1 3 2 4 3
12 12 12 11 12 12 9 8 8 9 7 8 4 5 4 3 3 2 1 2 2 5 3 4 5 3 3 3 2 3 2 3 3 2 1 2 3 3 1 3 3 4 3
16 16 15 15 14 11 11 9 8 7 7 7 6 5 5 4 2 1 3 4 3 6 3 5 4 4 3 2 4 2 3 2 2 3 2 1 1 1 2 2 2 2 2
14 13 12 10 10 9 10 10 10 10 7 7 7 8 8 6 3 3 4 4 3 3 3 4 4 3 3 3 3 4 3 3 3 2 2 3 3 3 2 1 2 2 2
11 12 13 11 8 12 12 11 11 12 9 9 8 8 8 7 7 5 4 4 3 2 4 5 4 3 5 5 3 3 3 4 3 3 2 2 2 3 2 3 2 1 1
9 13 14 13 12 13 13 14 13 13 10 10 10 7 8 5 4 5 4 4 4 4 4 5 5 5 5 4 4 2 3 4 3 3 3 3 3 3 3 3 4 1 1
13 13 14 14 14 12 14 14 13 12 9 11 8 8 8 8 7 7 4 3 4 4 5 5 5 6 6 5 4 3 3 3 3 3 3 3 3 2 3 3 3 4 3
9 9 9 12 12 12 10 9 11 13 13 12 9 9 10 8 7 6 6 6 6 5 5 5 5 5 5 5 5 3 4 4 2 2 2 2 2 3 3 3 3 3 4
9 11 12 10 13 10 10 11 10 11 11 11 11 10 9 9 7 7 6 7 6 6 6 6 6 6 6 5 5 4 5 4 3 3 4 3 2 2 2 1 2 2 3
12 12 12 11 10 11 10 12 11 10 11 10 7 9 9 8 9 9 8 7 7 6 7 6 6 6 6 6 6 6 6 5 5 5 4 4 2 2 1 0 2 3 3
8 8 7 8 9 8 8 10 11 14 10 8 9 8 9 7 11 10 8 7 7 7 6 6 7 6 6 6 6 6 6 6 5 5 5 5 3 2 3 3 2 2 1
10 7 6 8 8 9 10 10 10 8 7 7 10 11 10 11 13 10 8 9 9 8 8 7 7 7 6 5 6 6 6 5 4 5 5 5 5 5 4 4 4 3 3
6 7 6 7 7 7 7 6 7 7 9 9 9 11 9 9 9 8 9 8 8 9 9 8 7 6 6 5 7 6 6 6 5 5 4 3 3 4 5 4 5 5 3
7 7 7 7 6 6 7 6 7 8 7 8 12 10 7 7 8 8 4 3 1 3 6 8 7 7 6 10 12 7 5 5 6 6 5 4 6 6 8 9 6 3 5
8 8 8 6 4 4 3 5 5 5 7 8 8 7 6 8 8 6 9 6 3 3 2 7 7 9 8 10 11 11 6 6 6 6 6 5 4 6 6 8 9 10 10
8 7 7 7 5 5 6 5 4 3 3 3 3 3 5 6 6 8 10 10 12 18 7 9 10 7 6 11 9 9 6 6 7 7 8 7 7 6 6 6 6 5 6
3 5 5 4 5 5 5 7 6 5 4 3 1 2 1 4 5 8 11 9 9 10 14 13 9 8 6 9 8 6 5 5 5 5 5 8 8 10 11 7 7 5 4
6 8 6 4 5 4 5 6 5 4 2 3 4 4 3 4 5 7 9 9 12 13 11 8 6 7 6 10 10 7 4 6 5 3 3 6 8 14 11 8 8 7 4
7 6 6 5 4 3 5 6 4 2 2 4 4 4 5 3 5 5 4 8 10 10 10 10 8 8 9 8 10 10 6 6 5 5 3 3 6 14 11 7 6 4 7
6 5 6 5 4 4 5 5 3 2 3 3 4 4 4 2 3 3 0 4 7 10 9 7 5 3 3 7 10 11 11 11 6 4 2 3 5 12 10 6 10 12 9
5 5 6 6 4 4 5 5 1 3 2 3 4 4 5 4 3 2 3 2 3 4 4 5 4 4 4 5 10 12 13 14 7 5 8 10 10 11 11 13 12 9 4
5 5 7 7 6 5 4 4 4 4 3 3 4 5 5 5 6 4 3 2 3 3 3 4 4 3 2 3 3 9 9 15 11 15 9 10 13 12 9 7 5 5 4
6 5 3 4 6 5 6 5 5 5 4 4 3 6 5 5 5 6 4 3 3 1 3 3 4 5 4 0 3 7 8 8 9 11 6 5 4 6 4 5 6 5 4
5 5 5 1 1 3 4 5 4 4 5 4 2 4 5 4 3 4 6 15 11 14 11 11 5 3 9 9 12 16 15 16 9 5 6 6 5 6 5 5 5 4 5
Wind_Direction
192 179 182 173 165 169 170 179 171 198 150 141 164 203 235 264 278 254 273 237 206 197 207 327 114 159 163 146 168 151 145 97 144 129 338 313 7 343 325 279 289 269 230
182 175 172 178 183 181 179 178 192 182 180 161 163 159 153 254 257 285 261 195 195 203 212 194 225 139 131 143 162 169 136 146 199 160 107 26 337 330 262 283 236 234 201
182 183 179 187 182 190 187 188 192 191 183 175 136 100 97 327 287 280 302 222 214 227 228 204 206 169 127 173 184 154 172 158 195 192 142 117 210 314 315 241 260 258 200
183 188 183 186 189 197 187 190 195 190 193 167 163 165 179 213 242 228 283 249 280 237 215 222 209 181 150 175 169 165 148 130 168 175 185 89 131 158 318 323 337 272 247
180 190 190 194 195 187 185 190 193 198 192 169 180 183 198 212 215 239 257 248 273 264 229 218 200 196 200 178 192 166 183 199 147 198 147 124 119 131 136 208 294 308 235
192 194 192 190 189 182 188 188 190 212 188 184 186 195 209 228 207 213 234 248 236 258 223 217 194 212 230 193 211 192 206 205 217 197 179 183 165 179 147 141 269 245 307
182 180 180 188 176 186 187 193 193 214 212 189 194 206 217 219 211 216 207 216 205 220 228 205 187 197 231 219 201 225 224 204 203 194 169 157 183 145 132 134 188 205 347
186 192 189 190 189 190 193 188 198 209 197 200 205 206 219 224 223 213 194 200 206 215 209 219 205 201 230 215 206 243 235 189 170 183 173 169 178 174 173 171 143 40 287
201 192 192 193 193 194 197 195 195 207 208 212 203 205 209 205 215 216 206 218 212 230 230 213 218 209 217 218 198 235 239 200 169 196 177 185 195 202 223 164 171 151 193
216 211 188 196 197 200 191 186 201 199 206 200 198 212 218 215 209 203 205 206 221 222 222 237 212 217 227 206 209 232 240 217 201 191 189 210 200 198 216 186 184 167 167
208 202 206 192 198 194 191 195 196 201 202 204 205 202 205 206 198 212 212 204 209 222 216 215 219 201 221 214 205 214 237 228 232 236 221 237 257 266 266 294 120 131 147
205 198 194 189 183 196 186 194 203 211 210 201 199 204 212 196 201 212 207 194 209 207 218 209 221 220 221 203 187 198 212 213 212 222 242 251 243 265 223 309 170 168 186
187 195 184 177 185 190 192 200 204 214 212 187 197 205 210 208 217 216 205 191 200 206 215 217 209 217 220 209 203 211 212 208 198 210 217 243 249 217 214 207 204 192 157
194 187 191 187 189 196 195 200 205 198 197 187 204 215 208 213 232 216 199 197 193 201 201 211 217 210 214 224 214 204 209 213 206 210 220 238 208 199 201 212 199 192 172
163 182 195 210 204 195 199 193 212 191 194 203 207 218 209 207 221 216 200 193 191 210 215 202 210 219 203 215 214 210 215 207 204 215 180 164 164 190 203 180 193 175 162
180 185 196 202 213 205 205 198 210 200 166 201 216 212 198 205 203 205 214 161 198 270 243 218 210 205 214 212 218 195 207 204 188 192 178 152 126 100 98 92 92 174 171
191 195 184 166 148 154 150 214 222 190 187 199 221 225 202 214 215 196 159 135 64 321 309 273 230 215 209 198 202 209 200 192 194 185 170 169 146 137 119 97 86 68 55
189 184 161 146 146 129 121 101 76 74 147 176 213 202 211 220 200 188 177 161 172 219 241 260 249 227 195 184 199 215 207 205 190 188 178 172 164 164 146 120 87 62 47
152 112 104 103 112 107 100 106 97 91 87 61 43 130 226 256 202 206 190 191 186 208 206 233 222 212 182 176 196 204 195 165 156 169 183 166 168 161 152 130 117 92 74
108 113 101 88 86 66 81 77 68 71 45 351 315 311 216 228 250 220 211 184 189 198 200 191 192 180 183 179 195 191 161 154 157 165 134 152 160 160 166 146 146 133 153
114 101 103 111 114 104 103 98 100 72 295 295 303 290 273 222 257 256 210 204 198 202 208 189 176 176 172 162 215 210 181 167 169 185 174 170 150 165 174 161 157 153 138
122 116 115 112 117 120 108 100 81 356 356 340 319 311 319 328 283 243 220 202 194 198 200 192 177 167 159 177 189 209 223 156 157 178 163 115 156 162 146 131 127 123 116
118 98 111 112 106 105 114 119 16 44 30 31 29 15 11 357 356 66 84 80 99 138 149 162 169 170 181 226 197 190 173 142 116 125 108 95 76 100 94 108 110 106 102
143 150 147 148 154 147 132 137 102 79 48 59 51 43 39 16 15 27 28 82 91 108 126 133 133 117 149 149 240 131 113 109 106 120 114 108 99 87 94 83 93 91 101
166 156 173 168 160 157 146 150 137 118 80 21 69 69 54 47 52 48 8 43 25 81 148 150 146 151 150 298 147 102 124 125 124 119 110 110 96 110 96 84 91 81 93
140 133 124 93 254 180 159 152 149 139 111 82 6 78 75 36 44 60 73 49 53 51 64 66 83 60 101 102 96 96 99 103 108 87 114 109 111 116 115 119 123 120 123